[Iaude] MPEC M38: 2020 MP [a=2.56,e=0.51,i=3.3,H=20.8]

mpec at marsden.cfa.harvard.edu mpec at marsden.cfa.harvard.edu
Fri Jun 19 21:17:19 EDT 2020


M.P.E.C. 2020-M38                                 Issued 2020 June 20, 01:15 UT

     The Minor Planet Electronic Circulars contain information on unusual
         minor planets and routine data on comets.  They are published
    on behalf of Division F of the International Astronomical Union by the
          Minor Planet Center, Smithsonian Astrophysical Observatory,
                          Cambridge, MA 02138, U.S.A.

             Prepared using the Tamkin Foundation Computer Network

                              MPC at CFA.HARVARD.EDU
            URL https://www.minorplanetcenter.net/    ISSN 1523-6714

                                    2020 MP                                     


Observations:
     K20M00P  C2020 06 15.52388420 18 30.661-14 32 05.47         21.7 GVEM038F52
     K20M00P  C2020 06 15.53579520 18 31.245-14 31 58.20         21.7 GVEM038F52
     K20M00P  C2020 06 15.54769820 18 31.850-14 31 51.23         21.3 GVEM038F52
     K20M00P* C2020 06 17.54448120 20 19.278-14 11 13.96         21.50wUEM038F51
     K20M00P  C2020 06 17.55831720 20 19.925-14 11 05.43         22.04wUEM038F51
     K20M00P  C2020 06 17.58594020 20 21.229-14 10 48.03         21.49wUEM038F51
     K20M00P KC2020 06 18.36279020 21 01.89 -14 02 43.6          21.9 VuEM038H21
     K20M00P KC2020 06 18.36583220 21 02.03 -14 02 41.4          22.0 VuEM038H21
     K20M00P KC2020 06 18.37252520 21 02.36 -14 02 37.3          22.0 VuEM038H21
     K20M00P ^C2020 06 18.58522820 21 13.157-14 00 20.22         21.71GVEM038568
     K20M00P ^C2020 06 18.58617520 21 13.204-14 00 19.79         22.10GVEM038568
     K20M00P ^C2020 06 18.58712220 21 13.239-14 00 19.02         21.80GVEM038568
     K20M00P ^C2020 06 18.58811320 21 13.286-14 00 18.44         22.00GVEM038568
     K20M00P ^C2020 06 18.58907020 21 13.325-14 00 17.81         21.66GVEM038568
     K20M00P ^C2020 06 18.59001720 21 13.372-14 00 17.16         21.72GVEM038568

Observer details:
568 Mauna Kea.  Observers R. Wainscoat, H. Januszewski, T. Burdullis.
    Measurers R. Weryk, R. Wainscoat.  3.6-m Canada-France-Hawaii Telescope +
    CCD.
F51 Pan-STARRS 1, Haleakala.  Observers J. Bulger, T. Lowe, A. Schultz, M.
    Willman.  Measurers K. Chambers, S. Chastel, T. de Boer, L. Denneau, J.
    Fairlamb, H. Flewelling, M. Huber, C.-C. Lin, E. Magnier, Y. Ramanjooloo,
    R. Wainscoat, R. Weryk.  1.8-m Ritchey-Chretien + CCD.
F52 Pan-STARRS 2, Haleakala.  Observers J. Bulger, K. Chambers, T. Dukes, T.
    Lowe, A. Schultz, M. Willman.  Measurers S. Chastel, M. Huber, Y.
    Ramanjooloo, R. Wainscoat, R. Weryk.  1.8-m Ritchey-Chretien + CCD.
H21 Astronomical Research Observatory, Westfield.  Observer R. Holmes.
    Measurers S. Foglia, L. Buzzi, T. Linder, R. Holmes.  1.3-m f/4.0
    astrograph + CCD.

Orbital elements:
2020 MP                                                  Earth MOID = 0.2570 AU
Epoch 2020 May 31.0 TT = JDT 2459000.5                  Pan
M 334.11047              (2000.0)            P               Q
n   0.24050143     Peri.  105.93178     +0.97297543     +0.22529624
a   2.5608901      Node   241.07155     -0.22773666     +0.90008786
e   0.5095697      Incl.    3.31437     -0.03814218     +0.37293893
P   4.10           H   20.8           G   0.15           U   8
Residuals in seconds of arc
200615 F52  0.1-  0.2+    200617 F51  0.0   0.1-    200618 568  0.1+  0.2-
200615 F52  0.2-  0.2+    200618 H21  0.2-  0.3+    200618 568  0.0   0.1-
200615 F52  0.1+  0.2-    200618 H21  0.2-  0.6+    200618 568  0.0   0.1-
200617 F51  0.1+  0.0     200618 H21  0.0   0.4+    200618 568  0.1-  0.1-
200617 F51  0.0   0.1-    200618 568  0.0   0.1-    200618 568  0.0   0.1-

Ephemeris:
2020 MP                  a,e,i = 2.56, 0.51, 3                   q = 1.2559
Date    TT    R. A. (2000) Decl.     Delta      r    Elong.  Phase     V
2020 05 21    19 49 34.7 -18 21 25   0.9559  1.7393   124.2    28.8    23.2
...
2020 06 05    20 07 50.7 -16 14 20   0.7726  1.6465   133.8    26.4    22.5
...
2020 06 13    20 16 08.0 -14 57 30   0.6860  1.5985   139.1    24.6    22.1
...
2020 06 19    20 21 34.6 -13 55 51   0.6264  1.5634   143.2    22.9    21.8
2020 06 20    20 22 24.9 -13 45 15   0.6169  1.5576   143.9    22.6    21.8
2020 06 21    20 23 14.0 -13 34 34   0.6075  1.5518   144.6    22.3    21.7
...
2020 06 27    20 27 43.5 -12 28 39   0.5543  1.5180   148.7    20.3    21.4
...
2020 07 05    20 32 37.9 -10 56 18   0.4909  1.4746   154.3    17.4    21.0
...
2020 07 20    20 38 49.9 -07 53 56   0.3955  1.4005   163.9    11.6    20.2

M. P. C. Staff               (C) Copyright 2020 MPC           M.P.E.C. 2020-M38




More information about the Iaude mailing list